Other Public Products
Issued by NWS Grand Forks, ND

Home | Current Version | Previous Version | Graphics & Text | Print | Product List | Glossary On
Versions: 1 2 3 4 5 6 7 8 9 10 11 12 13 14 15 16 17 18 19 20 21 22 23 24 25 26 27 28 29 30 31 32 33 34 35 36 37 38 39 40 41 42 43 44 45 46 47 48 49 50
000
FPUS83 KFGF 300331
OPUFGF
PRAIRIE TO PINES WEATHER ROUNDUP
NATIONAL WEATHER SERVICE EASTERN NORTH DAKOTA/GRAND FORKS ND
1000 PM CDT WED MAR 29 2017

 **SATELLITE DATA USED TO AUGMENT SKY COVER AT AUTOMATED STATIONS**
 *****  WEATHER ACROSS EASTERN NORTH DAKOTA  *****

CITY           SKY/WX    TMP DP  RH WIND       PRES   REMARKS
GRAND FORKS    FAIR      49  38  65 S18       29.97F
GRAND FORKS AF FAIR      48  37  65 S22G28    29.96F
GRAND CITY NWS NOT AVBL
BUXTON         NOT AVBL
DEVILS LAKE    MOCLDY    50  34  54 S15       29.91F
FARGO          FAIR      47  38  71 S18G28    30.05S
WAHPETON ARPT  FAIR      39  34  81 S10       30.10S
$$

 *****  WEATHER ACROSS CENTRAL AND WESTERN NORTH DAKOTA  *****

CITY           SKY/WX    TMP DP  RH WIND       PRES   REMARKS
JAMESTOWN      FAIR      46  36  68 S15       29.96S
BISMARCK       CLOUDY    57  36  45 S12       29.90F
MINOT          FAIR      45  42  89 S5        29.85S
MINOT AFB      CLEAR     42  42  99 S6        29.84S
GARRISON         N/A     49  38  65 S6        29.86R
WILLISTON      FAIR      44  32  62 W8        29.84F
DICKINSON      FAIR      42  29  59 W3        29.85R
HETTINGER      MOCLDY    48  37  65 S12       29.91R
$$

 *****  OTHER OBSERVATIONS NORTHEAST NORTH DAKOTA  *****

CITY           SKY/WX    TMP DP  RH WIND       PRES   REMARKS
WALHALLA       NOT AVBL
LANGDON        MOCLDY    43  41  93 S16       29.91S
CAVALIER       CLOUDY    48  41  76 S14       29.92F
GRAFTON        FAIR      46  41  81 S18G29    29.97S
CANDO          NOT AVBL
FORT TOTTEN      N/A     50  36  59 S13       29.95S
ROLLA          LGT RAIN  41  41 100 SE15      29.88F
RUGBY          NOT AVBL
 ***** THE ABOVE OBSERVATIONS ARE NON NWS ARE NOT QUALITY
        CONTROLLED AND MAY MIS-REPORT RAIN FOR SNOW...
$$

 *****  OTHER OBSERVATIONS SOUTHEAST NORTH DAKOTA *****

CITY           SKY/WX    TMP DP  RH WIND       PRES   REMARKS
COOPERSTOWN    FAIR      45  37  76 S21G28    29.97S
VALLEY CITY    FAIR      46  36  66 S21G26    30.01S
OAKES          NOT AVBL
GWINNER        CLEAR     43  37  81 MISG      30.05F
SHEYENNE NWR     N/A     45  36  71 S15       29.95S
BUFFALO        NOT AVBL
WYNDMERE         N/A     39  36  87 S6          N/A
 ***** THE ABOVE OBSERVATIONS ARE NON NWS ARE NOT QUALITY
       CONTROLLED AND MAY MIS-REPORT RAIN FOR SNOW...
$$

  *****  WEATHER ACROSS NORTHERN MINNESOTA  *****

CITY           SKY/WX    TMP DP  RH WIND       PRES   REMARKS
FLAG ISLAND    FAIR      37  30  75 S16       30.02S
WARROAD        FAIR      48  36  61 S14G22    30.02S
ROSEAU         FAIR      46  37  71 S10       30.00F
HALLOCK        FAIR      48  41  76 S17       29.96S
THF RVR FALLS    N/A    N/A N/A N/A MISG        N/A
HALSTAD          N/A     44  37  77 S20         N/A
FOSSTON        FAIR      43  30  61 S10       30.06F
BAUDETTE       FAIR      45  32  60 SE10      30.05S
WASKISH        FAIR      43  34  70 SE6       30.08S
CROOKSTON      FAIR      46  37  71 S22       30.02F
$$
  *****  WEATHER ACROSS CENTRAL AND WEST MINNESOTA  *****

CITY           SKY/WX    TMP DP  RH WIND       PRES   REMARKS
BEMIDJI        FAIR      40  31  71 SE8       30.09S
PARK RAPIDS    FAIR      41  30  65 SE8       30.09F
WADENA         FAIR      36  30  80 SE3       30.09F
DETROIT LAKES  FAIR      41  34  75 S5        30.09S
MOORHEAD       FAIR      45  37  76 S20       30.07F
FERGUS FALLS   FAIR      37  34  87 S6        30.13F
ELBOW LAKE     FAIR      35  34  96 SE7       30.10F
MORRIS MN      CLOUDY    39  37  93 SE6       30.09F
STAPLES        FAIR      37  30  75 CALM      30.10F
WHEATON        FAIR      39  36  87 S7        30.11F
$$
  *****  WEATHER ELSEWHERE ACROSS MINNESOTA  *****

CITY           SKY/WX    TMP DP  RH WIND       PRES   REMARKS
DULUTH         FAIR      31  28  89 E10       30.17F WCI  22
INTRNTL FALLS  FAIR      40  29  64 SE8       30.11S
ELY            FAIR      30  23  74 CALM      30.17F
CLOQUET        CLOUDY    30  28  93 E7        30.16F WCI  23
BRAINERD       FAIR      39  32  76 E5        30.12F
HIBBING        FAIR      31  26  82 SE3       30.17S
ALEXANDRIA     FAIR      40  35  83 S5        30.11F
SAINT CLOUD    FAIR      43  37  79 SE5       30.11F
MINNEAPOLIS    CLOUDY    43  37  79 E15       30.11F
$$

  *****  WEATHER ACROSS SOUTH DAKOTA  *****

CITY           SKY/WX    TMP DP  RH WIND       PRES   REMARKS
SIOUX FALLS    LGT RAIN  40  39  97 E15       30.02S
BROOKINGS      CLOUDY    40  35  83 E10       30.05S
WATERTOWN      CLOUDY    41  36  82 E12       30.06S
HURON          CLOUDY    44  36  73 SE12      30.05S
SISSETON         N/A     39  36  89 S9        30.08F
ABERDEEN       FAIR      43  33  68 SE13      30.06R
MITCHELL       CLOUDY    43  37  79 E14       30.05S
PIERRE         FAIR      42  33  70 SE13      29.98F
MOBRIDGE       FAIR      45  32  60 SE10      29.95R
RAPID CITY     FAIR      41  37  86 SE3       29.94S
$$

  *****  SOME WEATHER IN NEARBY STATES *****

CITY           SKY/WX    TMP DP  RH WIND       PRES   REMARKS
GLASGOW MT     CLOUDY    49  33  54 SE6       29.80F
GREAT FALLS MT FAIR      50  34  54 SW18      29.78S
CHEYENNE WY    FAIR      44  29  55 SW3       29.97R
SCOTTSBLUFF NE FAIR      42  36  79 E7        29.95S
OMAHA NE       CLOUDY    44  38  79 NE15G30   29.81F
DES MOINES IA  RAIN      44  42  93 E21G29    29.87R FOG
DAVENPORT IA   CLOUDY    42  39  89 E23G30    29.95F
CHICAGO IL     LGT RAIN  44  38  79 NE13      30.08F
EAU CLAIRE WI  LGT RAIN  40  37  89 E12       30.13F
LA CROSSE WI   CLOUDY    42  37  82 E14G25    30.12F
$$

  *****  SOME NATIONAL WEATHER *****

CITY           SKY/WX    TMP DP  RH WIND       PRES   REMARKS
LA GUARDIA NY  FAIR      46  23  40 N17G26    30.23R
RALEIGH NC     FAIR      61  52  72 SE6       30.11R
ATLANTA GA     FAIR      74  59  59 S7        30.00R
NEW ORLEANS LA MOCLDY    73  69  87 SE13      29.91R
OKLAHOMA CITY  FAIR      48  41  76 W17       29.81R
ALBUQUERQUE NM MOCLDY    55  32  41 SE5       30.02R
SALT LAKE CITY MOCLDY    52  37  56 CALM      30.08F
LOS ANGELES CA FAIR      64  51  62 W12       30.00S
BOISE ID       LGT RAIN  51  47  86 E12       29.97F
SEATTLE WA     FAIR      47  41  80 SW20G28   29.93F
$$

*** WEATHER ACROSS MANITOBA...SASKATCHEWAN AND ONTARIO ***
                ***ONTARIO***

CITY           SKY/WX    TMP DP  RH WIND       PRES   REMARKS
GERALDTON      PTCLDY    28  19  69 E2        30.27S
THUNDER BAY    MOCLDY    28  28 100 E7        30.28  WCI  21
SIOUX LOOKOUT  CLOUDY    39  25  56 S10       30.11S
TORONTO        CLOUDY    41  25  52 E6        30.26F
BIG TROUT LK   CLOUDY    34  23  64 SE10      30.13F
PICKLE LAKE    NOT AVBL
DRYDEN         CLOUDY    41  27  56 S15       30.08S
KENORA         CLOUDY    45  30  57 S14       30.02F
$$
                *** MANITOBA***

CITY           SKY/WX    TMP DP  RH WIND       PRES   REMARKS
BRANDON        PTCLDY    37  37 100 SE6       29.85S
DAUPHIN        PTCLDY    34  34 100 N5        29.81F FOG
ISLAND LAKE    LGT RAIN  32  32 100 E8        29.98F WCI  25
PILOT MOUND      N/A     43  41  93 SW8         N/A
THE PAS        CLOUDY    34  30  86 E9        29.85F
THOMPSON       CLOUDY    37  21  52 E6        29.95F
WINNIPEG       LGT RAIN  48  45  87 S13       29.93S
LYNN LAKE      CLOUDY    36  27  69 E7        29.92S
CHURCHILL      PTCLDY    14  12  92 SE9       30.13S WCI   2
GILLAM         CLOUDY    36  21  55 E6        30.04F
$$
                ***SASKATCHEWAN***

CITY           SKY/WX    TMP DP  RH WIND       PRES   REMARKS
ESTEVAN        MOCLDY    43  34  70 S7        29.80F
KINDERSLEY     MOCLDY    45  32  61 S6        29.73S
LLOYDMINSTER   FOG       34  34 100 E6        29.76F VSB 1/8
PRINCE ALBERT  CLOUDY    36  32  87 N5        29.83R
REGINA         CLOUDY    46  30  53 VRB2      29.78S
YORKTON        CLEAR     39  37  93 S6        29.78R F


USA.gov is the U.S. government's official web portal to all federal, state and local government web resources and services.